Regional Weather Roundup
Issued by NWS

Home | Current Version | Previous Version | Text Only | Print | Product List | Glossary On
Versions: 1 2 3 4 5 6 7 8 9 10 11 12 13 14 15 16 17 18 19 20 21 22 23 24 25 26 27 28 29 30 31 32 33 34 35 36 37 38 39 40 41 42 43 44 45 46 47 48 49 50
000
ASCA42 TJSJ 292010
RWRPR
PUERTO RICO/U.S. VIRGIN ISLANDS HOURLY WEATHER ROUNDUP
NATIONAL WEATHER SERVICE SAN JUAN PR
400 PM AST SUN MAY 29 2016

PRZ001-004-292100-
PUERTO RICO

CITY           SKY/WX    TMP DP  RH WIND       PRES   REMARKS
SAN JUAN LMM   PTSUNNY   81  75  83 E8        29.99F
AGUADILLA      PTSUNNY   73  72  94 CALM      30.02F
CEIBA          CLOUDY    81  73  78 CALM      30.02F
$$

PRZ006-007-292100-
U.S. VIRGIN ISLANDS

CITY           SKY/WX    TMP DP  RH WIND       PRES   REMARKS
CHARLOTTE AMA  SUNNY     86  75  70 SE13      29.98F HX  95
CHRISTIANSTED  MOSUNNY   84  75  74 E15       29.98F HX  92
$$

HOURLY WEATHER ROUNDUP FOR THE NEWS MEDIA

CITY           SKY/WX    TMP DP  RH WIND       PRES   REMARKS
ORLANDO        SUNNY     93  62  35 W7        30.01F HX  93
NEW YORK       PTSUNNY   71  65  81 SE16      30.11F HAZE
NEWARK         PTSUNNY   84  58  40 SE12      30.06F
CHICAGO        MOSUNNY   78  60  53 W14G21    30.00F
HARTFORD       MOSUNNY   73  61  65 SE9       30.14F
BOSTON         CLOUDY    58  53  84 NE10      30.20S
DALLAS         CLOUDY    86  69  56 SE9       30.06S HX  90
PHILADELPHIA   PTSUNNY   86  63  45 S12       30.07F
LOS ANGELES    MOSUNNY   67  53  61 W10       30.01F
WASHINGTON DC  CLOUDY    81  62  52 S5        30.08F


USA.gov is the U.S. government's official web portal to all federal, state and local government web resources and services.